| time (UTC) | temp F | wind direction | speed MPH | gust MPH | rain 1hr in | rain 24hr in | rain mn in | humidity % | barometer mb |
| 20260505184750 | 55 | 344 | 1.0 | 1.0 | 0.00 | 0.00 | 0.00 | 87 | 1021.6 |
| 20260505184248 | 55 | 304 | 3.0 | 5.0 | 0.00 | 0.00 | 0.00 | 87 | 1021.7 |
| 20260505183744 | 55 | 18 | 1.0 | 1.0 | 0.00 | 0.00 | 0.00 | 87 | 1021.7 |
| 20260505183241 | 55 | 311 | 2.0 | 2.0 | 0.00 | 0.00 | 0.00 | 86 | 1021.8 |
| 20260505182738 | 55 | 25 | 1.0 | 1.0 | 0.00 | 0.00 | 0.00 | 86 | 1021.7 |
| 20260505182235 | 55 | 54 | 2.0 | 2.0 | 0.00 | 0.00 | 0.00 | 86 | 1021.7 |
| 20260505181731 | 55 | 288 | 2.0 | 2.0 | 0.00 | 0.00 | 0.00 | 85 | 1021.6 |
| 20260505181229 | 55 | 339 | 1.0 | 1.0 | 0.00 | 0.00 | 0.00 | 85 | 1021.6 |
| 20260505180725 | 55 | 308 | 2.0 | 2.0 | 0.00 | 0.00 | 0.00 | 85 | 1021.5 |
| 20260505180222 | 55 | 321 | 3.0 | 3.0 | 0.00 | 0.00 | 0.00 | 84 | 1021.4 |
| 20260505175718 | 55 | 60 | 0.0 | 0.0 | 0.00 | 0.00 | 0.00 | 84 | 1021.4 |
| 20260505175215 | 55 | 24 | 2.0 | 2.0 | 0.00 | 0.00 | 0.00 | 84 | 1021.3 |
| 20260505174711 | 55 | 318 | 3.0 | 3.0 | 0.00 | 0.00 | 0.00 | 84 | 1021.2 |
| 20260505174208 | 55 | 339 | 1.0 | 1.0 | 0.00 | 0.00 | 0.00 | 85 | 1021.3 |
| 20260505173704 | 55 | 9 | 3.0 | 3.0 | 0.00 | 0.00 | 0.00 | 85 | 1021.3 |
| 20260505173201 | 55 | 36 | 0.0 | 1.0 | 0.00 | 0.00 | 0.00 | 85 | 1021.1 |
| 20260505172658 | 55 | 343 | 3.0 | 3.0 | 0.00 | 0.00 | 0.00 | 86 | 1021.3 |
| 20260505172155 | 55 | 292 | 2.0 | 3.0 | 0.00 | 0.00 | 0.00 | 85 | 1021.3 |
| 20260505171655 | 55 | 44 | 0.0 | 0.0 | 0.00 | 0.00 | 0.00 | 85 | 1021.1 |
| 20260505171153 | 55 | 13 | 2.0 | 2.0 | 0.00 | 0.00 | 0.00 | 86 | 1021.1 |
| 20260505170650 | 55 | 322 | 2.0 | 2.0 | 0.00 | 0.00 | 0.00 | 85 | 1021.0 |
| 20260505170147 | 55 | 340 | 2.0 | 2.0 | 0.00 | 0.00 | 0.00 | 85 | 1020.9 |
| 20260505165647 | 55 | 12 | 1.0 | 2.0 | 0.00 | 0.00 | 0.00 | 85 | 1021.1 |
| 20260505165143 | 55 | 25 | 0.0 | 1.0 | 0.00 | 0.00 | 0.00 | 85 | 1020.8 |
| 20260505164639 | 55 | 313 | 2.0 | 2.0 | 0.00 | 0.00 | 0.00 | 85 | 1021.0 |
| 20260505164136 | 55 | 340 | 2.0 | 2.0 | 0.00 | 0.00 | 0.00 | 85 | 1021.1 |
| 20260505163634 | 55 | 290 | 2.0 | 2.0 | 0.00 | 0.00 | 0.00 | 85 | 1020.9 |
| 20260505163132 | 54 | 41 | 0.0 | 1.0 | 0.00 | 0.00 | 0.00 | 86 | 1021.0 |
| 20260505162629 | 54 | 294 | 3.0 | 5.0 | 0.00 | 0.00 | 0.00 | 87 | 1020.9 |
| 20260505162127 | 53 | 312 | 4.0 | 6.0 | 0.00 | 0.00 | 0.00 | 87 | 1021.0 |
| 20260505161624 | 53 | 269 | 2.0 | 2.0 | 0.00 | 0.00 | 0.00 | 88 | 1021.2 |
| 20260505161121 | 53 | 307 | 2.0 | 2.0 | 0.00 | 0.00 | 0.00 | 88 | 1020.9 |
| 20260505160619 | 53 | 289 | 1.0 | 2.0 | 0.00 | 0.00 | 0.00 | 89 | 1021.0 |
| 20260505160116 | 53 | 342 | 3.0 | 3.0 | 0.00 | 0.00 | 0.00 | 89 | 1021.0 |
| 20260505153055 | 51 | 339 | 0.0 | 0.0 | 0.00 | 0.00 | 0.00 | 94 | 1020.8 |
| 20260505152552 | 51 | 319 | 0.0 | 0.0 | 0.00 | 0.00 | 0.00 | 94 | 1020.7 |
| 20260505152047 | 50 | 334 | 0.0 | 0.0 | 0.00 | 0.00 | 0.00 | 95 | 1020.8 |
| 20260505151542 | 50 | 351 | 0.0 | 0.0 | 0.00 | 0.00 | 0.00 | 95 | 1020.7 |
| 20260505151040 | 50 | 303 | 0.0 | 0.0 | 0.00 | 0.00 | 0.00 | 95 | 1020.5 |
| 20260505150536 | 50 | 272 | 0.0 | 0.0 | 0.00 | 0.00 | 0.00 | 95 | 1020.8 |
| 20260505140502 | 49 | 156 | 0.0 | 0.0 | 0.00 | 0.00 | 0.00 | 98 | 1020.2 |
| 20260505124915 | 48 | 70 | 0.0 | 0.0 | 0.00 | 0.00 | 0.00 | 97 | 1020.0 |
| 20260505124412 | 48 | 70 | 0.0 | 0.0 | 0.00 | 0.00 | 0.00 | 97 | 1020.1 |
| 20260505123908 | 48 | 66 | 0.0 | 0.0 | 0.00 | 0.00 | 0.00 | 97 | 1019.9 |
| 20260505123405 | 48 | 64 | 0.0 | 0.0 | 0.00 | 0.00 | 0.00 | 97 | 1020.0 |
| 20260505122900 | 48 | 64 | 0.0 | 0.0 | 0.00 | 0.00 | 0.00 | 97 | 1020.0 |
| 20260505122358 | 48 | 62 | 0.0 | 0.0 | 0.00 | 0.00 | 0.00 | 97 | 1020.1 |
| 20260505121854 | 48 | 59 | 0.0 | 0.0 | 0.00 | 0.00 | 0.00 | 97 | 1020.0 |
| 20260505121352 | 48 | 59 | 0.0 | 0.0 | 0.00 | 0.00 | 0.00 | 97 | 1020.2 |
| 20260505120847 | 48 | 59 | 0.0 | 0.0 | 0.00 | 0.00 | 0.00 | 97 | 1020.1 |
| 20260505120344 | 48 | 347 | 0.0 | 0.0 | 0.00 | 0.00 | 0.00 | 97 | 1020.0 |
| 20260505115843 | 48 | 353 | 0.0 | 0.0 | 0.00 | 0.00 | 0.00 | 96 | 1020.1 |
| 20260505115340 | 48 | 75 | 0.0 | 0.0 | 0.00 | 0.00 | 0.00 | 96 | 1019.9 |
| 20260505114838 | 48 | 75 | 0.0 | 0.0 | 0.00 | 0.00 | 0.00 | 96 | 1020.0 |
| 20260505114334 | 48 | 75 | 0.0 | 0.0 | 0.00 | 0.00 | 0.00 | 96 | 1019.8 |
| 20260505113830 | 48 | 351 | 0.0 | 0.0 | 0.00 | 0.00 | 0.00 | 96 | 1020.1 |
| 20260505113327 | 48 | 355 | 0.0 | 0.0 | 0.00 | 0.00 | 0.00 | 96 | 1020.0 |
| 20260505112823 | 48 | 52 | 0.0 | 0.0 | 0.00 | 0.00 | 0.00 | 96 | 1020.0 |
| 20260505112320 | 48 | 50 | 0.0 | 0.0 | 0.00 | 0.00 | 0.00 | 96 | 1020.1 |
| 20260505111816 | 48 | 49 | 0.0 | 0.0 | 0.00 | 0.00 | 0.00 | 95 | 1019.9 |
| 20260505111312 | 48 | 50 | 0.0 | 0.0 | 0.00 | 0.00 | 0.00 | 95 | 1020.0 |
| 20260505110808 | 48 | 50 | 0.0 | 0.0 | 0.00 | 0.00 | 0.00 | 95 | 1019.9 |
| 20260505110306 | 49 | 48 | 0.0 | 0.0 | 0.00 | 0.00 | 0.00 | 95 | 1020.0 |
| 20260505101739 | 49 | 42 | 0.0 | 0.0 | 0.00 | 0.00 | 0.00 | 94 | 1020.0 |
| 20260505101235 | 49 | 41 | 0.0 | 0.0 | 0.00 | 0.00 | 0.00 | 94 | 1020.1 |
| 20260505100732 | 49 | 41 | 0.0 | 0.0 | 0.00 | 0.00 | 0.00 | 94 | 1020.0 |
| 20260505100229 | 49 | 48 | 0.0 | 0.0 | 0.00 | 0.00 | 0.00 | 94 | 1020.0 |
| 20260505095724 | 49 | 55 | 0.0 | 0.0 | 0.00 | 0.00 | 0.00 | 94 | 1020.2 |
| 20260505095223 | 49 | 56 | 0.0 | 0.0 | 0.00 | 0.00 | 0.00 | 93 | 1020.0 |
| 20260505094718 | 49 | 55 | 0.0 | 0.0 | 0.00 | 0.00 | 0.00 | 93 | 1020.1 |
| 20260505094215 | 49 | 46 | 0.0 | 0.0 | 0.00 | 0.00 | 0.00 | 92 | 1020.2 |
| 20260505093711 | 50 | 46 | 0.0 | 0.0 | 0.00 | 0.00 | 0.00 | 92 | 1019.9 |
| 20260505093209 | 50 | 65 | 0.0 | 0.0 | 0.00 | 0.00 | 0.00 | 91 | 1020.1 |
| 20260505092705 | 50 | 71 | 0.0 | 0.0 | 0.00 | 0.00 | 0.00 | 92 | 1020.1 |
| 20260505092204 | 50 | 76 | 0.0 | 0.0 | 0.00 | 0.00 | 0.00 | 92 | 1020.2 |
| 20260505091700 | 50 | 34 | 0.0 | 0.0 | 0.00 | 0.00 | 0.00 | 91 | 1020.2 |
| 20260505091159 | 50 | 33 | 0.0 | 0.0 | 0.00 | 0.00 | 0.00 | 92 | 1020.4 |
| 20260505090656 | 50 | 13 | 0.0 | 0.0 | 0.00 | 0.00 | 0.00 | 92 | 1020.4 |
| 20260505090154 | 50 | 10 | 0.0 | 0.0 | 0.00 | 0.00 | 0.00 | 92 | 1020.2 |
| 20260505085651 | 50 | 324 | 0.0 | 0.0 | 0.00 | 0.00 | 0.00 | 92 | 1020.3 |
| 20260505085149 | 50 | 19 | 0.0 | 0.0 | 0.00 | 0.00 | 0.00 | 92 | 1020.6 |
| 20260505084646 | 50 | 17 | 0.0 | 0.0 | 0.00 | 0.00 | 0.00 | 93 | 1020.6 |
| 20260505084145 | 49 | 33 | 0.0 | 0.0 | 0.00 | 0.00 | 0.00 | 93 | 1020.5 |
| 20260505083642 | 50 | 34 | 0.0 | 0.0 | 0.00 | 0.00 | 0.00 | 94 | 1020.4 |
| 20260505083138 | 50 | 39 | 0.0 | 0.0 | 0.00 | 0.00 | 0.00 | 94 | 1020.4 |
| 20260505082634 | 49 | 40 | 0.0 | 0.0 | 0.00 | 0.00 | 0.00 | 95 | 1020.6 |
| 20260505082131 | 50 | 96 | 0.0 | 0.0 | 0.00 | 0.00 | 0.00 | 95 | 1020.4 |
| 20260505081627 | 50 | 97 | 0.0 | 0.0 | 0.00 | 0.00 | 0.00 | 95 | 1020.5 |
| 20260505081125 | 49 | 267 | 0.0 | 0.0 | 0.00 | 0.00 | 0.00 | 96 | 1020.6 |
| 20260505080622 | 49 | 82 | 0.0 | 0.0 | 0.00 | 0.00 | 0.00 | 96 | 1020.7 |
| 20260505080118 | 49 | 248 | 0.0 | 0.0 | 0.00 | 0.00 | 0.00 | 96 | 1020.6 |
| 20260505075614 | 49 | 86 | 0.0 | 0.0 | 0.00 | 0.00 | 0.00 | 96 | 1020.6 |
| 20260505075111 | 49 | 25 | 0.0 | 0.0 | 0.00 | 0.00 | 0.00 | 96 | 1020.6 |
| 20260505074608 | 49 | 60 | 0.0 | 0.0 | 0.00 | 0.00 | 0.00 | 96 | 1020.6 |
| 20260505074105 | 49 | 334 | 0.0 | 0.0 | 0.00 | 0.00 | 0.00 | 96 | 1020.5 |
| 20260505073602 | 49 | 11 | 0.0 | 0.0 | 0.00 | 0.00 | 0.00 | 96 | 1020.5 |
| 20260505073101 | 49 | 12 | 0.0 | 0.0 | 0.00 | 0.00 | 0.00 | 96 | 1020.5 |
| 20260505072556 | 49 | 12 | 0.0 | 0.0 | 0.00 | 0.00 | 0.00 | 96 | 1020.7 |
| 20260505072053 | 49 | 12 | 0.0 | 0.0 | 0.00 | 0.00 | 0.00 | 96 | 1020.4 |
| 20260505071548 | 49 | 11 | 0.0 | 0.0 | 0.00 | 0.00 | 0.00 | 96 | 1020.3 |
| 20260505071046 | 49 | 11 | 0.0 | 0.0 | 0.00 | 0.00 | 0.00 | 95 | 1020.0 |
| 20260505070543 | 49 | 11 | 0.0 | 0.0 | 0.00 | 0.00 | 0.00 | 95 | 1020.2 |
| 20260505070039 | 49 | 11 | 0.0 | 0.0 | 0.00 | 0.00 | 0.00 | 95 | 1020.4 |
| 20260505065535 | 50 | 11 | 0.0 | 0.0 | 0.00 | 0.00 | 0.00 | 95 | 1020.6 |
| 20260505065032 | 50 | 10 | 0.0 | 0.0 | 0.00 | 0.00 | 0.00 | 94 | 1020.4 |
| 20260505064529 | 50 | 10 | 0.0 | 0.0 | 0.00 | 0.00 | 0.00 | 94 | 1020.3 |
| 20260505064027 | 50 | 10 | 0.0 | 0.0 | 0.00 | 0.00 | 0.00 | 94 | 1020.3 |
| 20260505063524 | 50 | 10 | 0.0 | 0.0 | 0.00 | 0.00 | 0.00 | 94 | 1020.2 |
| 20260505063020 | 50 | 11 | 0.0 | 0.0 | 0.00 | 0.00 | 0.00 | 94 | 1020.1 |
| 20260505062517 | 50 | 10 | 0.0 | 0.0 | 0.00 | 0.00 | 0.00 | 94 | 1020.1 |
| 20260505062014 | 50 | 10 | 0.0 | 0.0 | 0.00 | 0.00 | 0.00 | 93 | 1020.3 |
| 20260505061512 | 50 | 10 | 0.0 | 0.0 | 0.00 | 0.00 | 0.00 | 93 | 1020.1 |
| 20260505061010 | 50 | 10 | 0.0 | 0.0 | 0.00 | 0.00 | 0.00 | 93 | 1020.1 |
| 20260505060507 | 51 | 10 | 0.0 | 0.0 | 0.00 | 0.00 | 0.00 | 93 | 1019.9 |
| 20260505060003 | 51 | 11 | 0.0 | 0.0 | 0.00 | 0.00 | 0.00 | 93 | 1020.3 |
| 20260505055458 | 51 | 10 | 0.0 | 0.0 | 0.00 | 0.00 | 0.00 | 92 | 1020.3 |
| 20260505054955 | 51 | 10 | 0.0 | 0.0 | 0.00 | 0.00 | 0.00 | 92 | 1020.2 |
| 20260505054453 | 51 | 61 | 0.0 | 0.0 | 0.00 | 0.00 | 0.00 | 91 | 1020.4 |
| 20260505053951 | 51 | 68 | 0.0 | 0.0 | 0.00 | 0.00 | 0.00 | 91 | 1020.4 |
| 20260505053448 | 52 | 94 | 0.0 | 0.0 | 0.00 | 0.00 | 0.00 | 91 | 1020.6 |
| 20260505052944 | 52 | 78 | 0.0 | 0.0 | 0.00 | 0.00 | 0.00 | 91 | 1020.5 |
| 20260505052442 | 52 | 13 | 0.0 | 1.0 | 0.00 | 0.00 | 0.00 | 91 | 1020.8 |
| 20260505051938 | 52 | 0 | 1.0 | 1.0 | 0.00 | 0.00 | 0.00 | 91 | 1020.6 |
| 20260505051435 | 52 | 340 | 1.0 | 2.0 | 0.00 | 0.00 | 0.00 | 91 | 1020.6 |
| 20260505050933 | 52 | 8 | 1.0 | 1.0 | 0.00 | 0.00 | 0.00 | 91 | 1020.6 |
| 20260505050432 | 52 | 276 | 0.0 | 0.0 | 0.00 | 0.00 | 0.00 | 91 | 1020.6 |
| 20260505041359 | 53 | 67 | 1.0 | 1.0 | 0.00 | 0.00 | 0.00 | 87 | 1020.1 |
| 20260505040856 | 52 | 279 | 1.0 | 1.0 | 0.00 | 0.00 | 0.00 | 87 | 1020.3 |
| 20260505040354 | 52 | 349 | 1.0 | 2.0 | 0.00 | 0.00 | 0.00 | 86 | 1020.1 |
| 20260505035850 | 53 | 38 | 0.0 | 1.0 | 0.00 | 0.00 | 0.00 | 85 | 1020.1 |
| 20260505035346 | 53 | 38 | 1.0 | 1.0 | 0.00 | 0.00 | 0.00 | 84 | 1020.0 |
| 20260505034844 | 53 | 9 | 1.0 | 1.0 | 0.00 | 0.00 | 0.00 | 84 | 1019.9 |
| 20260505034340 | 53 | 6 | 0.0 | 0.0 | 0.00 | 0.00 | 0.00 | 84 | 1019.7 |
| 20260505033837 | 53 | 38 | 0.0 | 0.0 | 0.00 | 0.00 | 0.00 | 84 | 1019.6 |
| 20260505033334 | 53 | 32 | 1.0 | 1.0 | 0.00 | 0.00 | 0.00 | 83 | 1019.5 |
| 20260505032833 | 54 | 348 | 2.0 | 2.0 | 0.00 | 0.00 | 0.00 | 83 | 1019.5 |
| 20260505032328 | 54 | 0 | 1.0 | 1.0 | 0.00 | 0.00 | 0.00 | 82 | 1019.4 |
| 20260505031826 | 54 | 41 | 1.0 | 1.0 | 0.00 | 0.00 | 0.00 | 82 | 1019.7 |
| 20260505031322 | 54 | 31 | 0.0 | 0.0 | 0.00 | 0.00 | 0.00 | 81 | 1019.6 |
| 20260505030820 | 54 | 48 | 1.0 | 1.0 | 0.00 | 0.00 | 0.00 | 81 | 1019.6 |
| 20260505030316 | 54 | 298 | 2.0 | 2.0 | 0.00 | 0.00 | 0.00 | 81 | 1019.6 |
| 20260505025811 | 54 | 343 | 2.0 | 2.0 | 0.00 | 0.00 | 0.00 | 80 | 1019.7 |
| 20260505025309 | 55 | 3 | 1.0 | 1.0 | 0.00 | 0.00 | 0.00 | 80 | 1019.5 |
| 20260505024807 | 55 | 343 | 3.0 | 3.0 | 0.00 | 0.00 | 0.00 | 79 | 1019.4 |
| 20260505024304 | 55 | 341 | 2.0 | 2.0 | 0.00 | 0.00 | 0.00 | 79 | 1019.5 |
| 20260505023802 | 55 | 340 | 2.0 | 2.0 | 0.00 | 0.00 | 0.00 | 78 | 1019.5 |
| 20260505023258 | 55 | 293 | 5.0 | 6.0 | 0.00 | 0.00 | 0.00 | 78 | 1019.7 |
| 20260505022755 | 55 | 294 | 5.0 | 7.0 | 0.00 | 0.00 | 0.00 | 78 | 1019.4 |
| 20260505022253 | 56 | 338 | 5.0 | 6.0 | 0.00 | 0.00 | 0.00 | 78 | 1019.5 |
| 20260505021749 | 56 | 320 | 5.0 | 6.0 | 0.00 | 0.00 | 0.00 | 78 | 1019.4 |
| 20260505021246 | 57 | 48 | 0.0 | 1.0 | 0.00 | 0.00 | 0.00 | 78 | 1019.3 |
| 20260505020742 | 57 | 314 | 4.0 | 5.0 | 0.00 | 0.00 | 0.00 | 77 | 1019.4 |
| 20260505020237 | 57 | 352 | 2.0 | 3.0 | 0.00 | 0.00 | 0.00 | 76 | 1019.3 |
| 20260505015735 | 57 | 288 | 2.0 | 2.0 | 0.00 | 0.00 | 0.00 | 76 | 1019.3 |
| 20260505015232 | 57 | 32 | 2.0 | 3.0 | 0.00 | 0.00 | 0.00 | 75 | 1019.2 |
| 20260505014729 | 58 | 333 | 1.0 | 2.0 | 0.00 | 0.00 | 0.00 | 74 | 1019.5 |
| 20260505014226 | 59 | 267 | 2.0 | 2.0 | 0.00 | 0.00 | 0.00 | 73 | 1019.3 |
| 20260505013722 | 60 | 236 | 3.0 | 3.0 | 0.00 | 0.00 | 0.00 | 70 | 1019.7 |
| 20260505013220 | 60 | 341 | 1.0 | 2.0 | 0.00 | 0.00 | 0.00 | 69 | 1019.4 |
| 20260505012718 | 60 | 212 | 1.0 | 1.0 | 0.00 | 0.00 | 0.00 | 70 | 1019.6 |
| 20260505012215 | 60 | 266 | 3.0 | 3.0 | 0.00 | 0.00 | 0.00 | 69 | 1019.7 |
| 20260505011710 | 61 | 252 | 4.0 | 5.0 | 0.00 | 0.00 | 0.00 | 69 | 1019.5 |
| 20260505011208 | 61 | 150 | 2.0 | 2.0 | 0.00 | 0.00 | 0.00 | 67 | 1019.8 |
| 20260505010703 | 60 | 290 | 3.0 | 3.0 | 0.00 | 0.00 | 0.00 | 70 | 1019.6 |
| 20260505010200 | 61 | 315 | 1.0 | 1.0 | 0.00 | 0.00 | 0.00 | 68 | 1019.8 |
| 20260505005656 | 60 | 345 | 3.0 | 3.0 | 0.00 | 0.00 | 0.00 | 72 | 1019.8 |
| 20260505005154 | 60 | 302 | 1.0 | 2.0 | 0.00 | 0.00 | 0.00 | 71 | 1019.8 |
| 20260505004651 | 59 | 258 | 2.0 | 2.0 | 0.00 | 0.00 | 0.00 | 72 | 1019.8 |
| 20260505004147 | 59 | 341 | 4.0 | 5.0 | 0.00 | 0.00 | 0.00 | 73 | 1019.9 |
| 20260505003644 | 59 | 312 | 4.0 | 5.0 | 0.00 | 0.00 | 0.00 | 72 | 1019.9 |
| 20260505003142 | 60 | 304 | 4.0 | 5.0 | 0.00 | 0.00 | 0.00 | 71 | 1019.8 |
| 20260505002638 | 60 | 314 | 3.0 | 5.0 | 0.00 | 0.00 | 0.00 | 70 | 1019.7 |
| 20260505002136 | 60 | 350 | 4.0 | 5.0 | 0.00 | 0.00 | 0.00 | 70 | 1019.9 |
| 20260505001633 | 60 | 333 | 3.0 | 3.0 | 0.00 | 0.00 | 0.00 | 70 | 1019.7 |
| 20260505001130 | 62 | 269 | 4.0 | 5.0 | 0.00 | 0.00 | 0.00 | 69 | 1019.8 |
| 20260505000627 | 59 | 222 | 2.0 | 2.0 | 0.00 | 0.00 | 0.00 | 71 | 1019.9 |
| 20260505000125 | 61 | 349 | 5.0 | 6.0 | 0.00 | 0.00 | 0.00 | 71 | 1019.7 |
| 20260504235621 | 61 | 274 | 5.0 | 6.0 | 0.00 | 0.00 | 0.00 | 71 | 1019.8 |
| 20260504235118 | 60 | 165 | 5.0 | 7.0 | 0.00 | 0.00 | 0.00 | 73 | 1020.1 |
| 20260504234615 | 60 | 296 | 5.0 | 6.0 | 0.00 | 0.00 | 0.00 | 72 | 1020.1 |
| 20260504234113 | 60 | 322 | 6.0 | 7.0 | 0.00 | 0.00 | 0.00 | 74 | 1020.0 |
| 20260504233608 | 60 | 339 | 3.0 | 3.0 | 0.00 | 0.00 | 0.00 | 74 | 1020.1 |
| 20260504233104 | 59 | 340 | 3.0 | 3.0 | 0.00 | 0.00 | 0.00 | 75 | 1020.2 |
| 20260504232602 | 59 | 282 | 5.0 | 7.0 | 0.00 | 0.00 | 0.00 | 77 | 1019.9 |
| 20260504232059 | 59 | 317 | 7.0 | 8.0 | 0.00 | 0.00 | 0.00 | 76 | 1020.0 |
| 20260504231555 | 59 | 326 | 4.0 | 5.0 | 0.00 | 0.00 | 0.00 | 75 | 1020.1 |
| 20260504231051 | 59 | 287 | 3.0 | 3.0 | 0.00 | 0.00 | 0.00 | 75 | 1020.3 |
| 20260504230548 | 58 | 319 | 3.0 | 5.0 | 0.00 | 0.00 | 0.00 | 76 | 1020.2 |
| 20260504230047 | 58 | 298 | 6.0 | 7.0 | 0.00 | 0.00 | 0.00 | 75 | 1020.2 |
| 20260504225544 | 58 | 282 | 3.0 | 5.0 | 0.00 | 0.00 | 0.00 | 76 | 1020.2 |
| 20260504225041 | 59 | 344 | 7.0 | 8.0 | 0.00 | 0.00 | 0.00 | 75 | 1020.0 |
| 20260504224537 | 59 | 153 | 1.0 | 2.0 | 0.00 | 0.00 | 0.00 | 74 | 1020.3 |
| 20260504224035 | 59 | 286 | 4.0 | 5.0 | 0.00 | 0.00 | 0.00 | 75 | 1020.3 |
| 20260504223531 | 58 | 279 | 4.0 | 6.0 | 0.00 | 0.00 | 0.00 | 76 | 1020.3 |
| 20260504223027 | 57 | 313 | 3.0 | 3.0 | 0.00 | 0.00 | 0.00 | 77 | 1020.3 |
| 20260504222524 | 57 | 296 | 3.0 | 3.0 | 0.00 | 0.00 | 0.00 | 77 | 1020.4 |
| 20260504222022 | 57 | 263 | 8.0 | 10.0 | 0.00 | 0.00 | 0.00 | 76 | 1020.4 |
| 20260504221519 | 57 | 323 | 5.0 | 7.0 | 0.00 | 0.00 | 0.00 | 77 | 1020.4 |
| 20260504221015 | 57 | 297 | 5.0 | 8.0 | 0.00 | 0.00 | 0.00 | 79 | 1020.7 |
| 20260504220512 | 57 | 337 | 5.0 | 7.0 | 0.00 | 0.00 | 0.00 | 78 | 1020.4 |
| 20260504220009 | 57 | 241 | 3.0 | 3.0 | 0.00 | 0.00 | 0.00 | 79 | 1020.6 |
| 20260504215505 | 57 | 219 | 1.0 | 2.0 | 0.00 | 0.00 | 0.00 | 80 | 1020.7 |
| 20260504215003 | 57 | 310 | 3.0 | 3.0 | 0.00 | 0.00 | 0.00 | 79 | 1020.7 |
| 20260504214459 | 58 | 345 | 4.0 | 5.0 | 0.00 | 0.00 | 0.00 | 78 | 1020.7 |
| 20260504213955 | 58 | 4 | 3.0 | 3.0 | 0.00 | 0.00 | 0.00 | 77 | 1020.4 |
| 20260504213451 | 58 | 312 | 3.0 | 3.0 | 0.00 | 0.00 | 0.00 | 76 | 1020.6 |
| 20260504212949 | 59 | 340 | 3.0 | 3.0 | 0.00 | 0.00 | 0.00 | 75 | 1020.8 |
| 20260504212444 | 59 | 316 | 2.0 | 2.0 | 0.00 | 0.00 | 0.00 | 74 | 1021.0 |
| 20260504211942 | 60 | 343 | 3.0 | 5.0 | 0.00 | 0.00 | 0.00 | 74 | 1020.6 |
| 20260504211438 | 59 | 351 | 2.0 | 2.0 | 0.00 | 0.00 | 0.00 | 75 | 1020.8 |
| 20260504210936 | 60 | 249 | 3.0 | 3.0 | 0.00 | 0.00 | 0.00 | 75 | 1020.8 |
| 20260504210433 | 59 | 345 | 3.0 | 3.0 | 0.00 | 0.00 | 0.00 | 76 | 1020.7 |
| 20260504205930 | 59 | 334 | 4.0 | 5.0 | 0.00 | 0.00 | 0.00 | 76 | 1020.8 |
| 20260504205427 | 58 | 205 | 2.0 | 2.0 | 0.00 | 0.00 | 0.00 | 74 | 1020.8 |
| 20260504204926 | 58 | 237 | 2.0 | 2.0 | 0.00 | 0.00 | 0.00 | 75 | 1020.9 |
| 20260504204424 | 58 | 206 | 2.0 | 2.0 | 0.00 | 0.00 | 0.00 | 76 | 1021.0 |
| 20260504203923 | 58 | 267 | 3.0 | 3.0 | 0.00 | 0.00 | 0.00 | 73 | 1020.8 |
| 20260504203420 | 58 | 317 | 2.0 | 2.0 | 0.00 | 0.00 | 0.00 | 74 | 1020.7 |
| 20260504202915 | 58 | 107 | 2.0 | 2.0 | 0.00 | 0.00 | 0.00 | 74 | 1021.0 |
| 20260504202412 | 59 | 245 | 5.0 | 7.0 | 0.00 | 0.00 | 0.00 | 72 | 1020.8 |
| 20260504201909 | 58 | 226 | 2.0 | 3.0 | 0.00 | 0.00 | 0.00 | 74 | 1021.0 |
| 20260504201407 | 58 | 219 | 3.0 | 3.0 | 0.00 | 0.00 | 0.00 | 74 | 1020.7 |
| 20260504200904 | 57 | 0 | 3.0 | 3.0 | 0.00 | 0.00 | 0.00 | 75 | 1020.9 |
| 20260504200400 | 57 | 341 | 5.0 | 6.0 | 0.00 | 0.00 | 0.00 | 76 | 1020.9 |
| 20260504195857 | 57 | 324 | 5.0 | 7.0 | 0.00 | 0.00 | 0.00 | 76 | 1020.8 |
| 20260504195352 | 58 | 318 | 4.0 | 5.0 | 0.00 | 0.00 | 0.00 | 76 | 1020.9 |
| 20260504194849 | 57 | 278 | 2.0 | 3.0 | 0.00 | 0.00 | 0.00 | 76 | 1020.8 |
| 20260504194345 | 58 | 339 | 3.0 | 3.0 | 0.00 | 0.00 | 0.00 | 76 | 1021.0 |
| 20260504193841 | 58 | 289 | 5.0 | 7.0 | 0.00 | 0.00 | 0.00 | 75 | 1020.8 |
| 20260504193339 | 58 | 25 | 3.0 | 5.0 | 0.00 | 0.00 | 0.00 | 75 | 1020.9 |
| 20260504192838 | 58 | 276 | 4.0 | 6.0 | 0.00 | 0.00 | 0.00 | 74 | 1020.9 |
| 20260504192335 | 59 | 10 | 3.0 | 3.0 | 0.00 | 0.00 | 0.00 | 74 | 1020.9 |
| 20260504191833 | 58 | 242 | 0.0 | 0.0 | 0.00 | 0.00 | 0.00 | 75 | 1020.9 |
| 20260504191331 | 58 | 346 | 4.0 | 5.0 | 0.00 | 0.00 | 0.00 | 76 | 1021.0 |
| 20260504190826 | 57 | 350 | 5.0 | 6.0 | 0.00 | 0.00 | 0.00 | 77 | 1020.8 |
| 20260504190322 | 57 | 351 | 3.0 | 3.0 | 0.00 | 0.00 | 0.00 | 77 | 1021.0 |
| 20260504185819 | 57 | 322 | 4.0 | 5.0 | 0.00 | 0.00 | 0.00 | 77 | 1020.9 |
| 20260504185316 | 57 | 289 | 3.0 | 3.0 | 0.00 | 0.00 | 0.00 | 77 | 1021.1 |